Flag for Germany Weather past 2 weeks in Barsinghausen, Lower Saxony, Germany

Now
61 °F

Partly cloudy.


Feels Like: 61 °F
Forecast: 57 / 72 °F
Wind: 3 mph from Northeast

Location: Wunstorf Airport

Current Time: Sep 15, 2014 at 6:15:34 AM

Latest Report: Sep 15, 2014 at 5:20 AM


Visibility: 4 mi

Pressure: 30.07 "Hg

Humidity: 94%

Dew point: 59 °F

Location of BarsinghausenLocation

Historic Weather in Barsinghausen — Graph

°F

Barsinghausen temperature yesterday

Maximum temperature yesterday: 70 °F (at 4:20 PM)
Minimum temperature yesterday: 59 °F (at 5:20 AM)
Average temperature yesterday: 63 °F

Past Weeks' High & Low Weather Summary

 TemperatureHumidityPressure
High77 °F (Sep 5, 3:20 PM)100% (Sep 1, 6:20 AM)30.30 "Hg (Sep 1, 6:20 AM)
Low48 °F (Sep 3, 5:20 AM)50% (Sep 12, 3:20 PM)29.86 "Hg (Sep 6, 4:20 PM)
Average61 °F84%30.09 "Hg
* Reported Sep 1 5:20 AM — Sep 15 5:20 AM, Barsinghausen, Weather by CustomWeather, © 2014

Note: Actual official high and low records may vary slightly from our data, if they occured in-between our weather recording intervals... More about our weather records

Advertising

Barsinghausen weather history for previous 24 hours

 ConditionsComfort  
Time TempWeatherWind HumidityBarometerVisibility
5:20 AM
Sep 15
61 °FPartly cloudy.3 mph94%30.07 "Hg4 mi
4:20 AM61 °FCool.3 mph94%30.09 "Hg4 mi
3:20 AM61 °FCool.No wind94%30.09 "Hg5 mi
2:20 AM59 °FCool.5 mph94%30.09 "Hg5 mi
1:20 AM59 °FCool.5 mph94%30.09 "Hg6 mi
12:20 AM59 °FCool.3 mph94%30.09 "HgN/A
11:20 PM
Sep 14
59 °FCool.2 mph88%30.09 "HgN/A
10:20 PM61 °FCool.5 mph83%30.09 "HgN/A
9:20 PM61 °FCool.2 mph83%30.09 "HgN/A
8:20 PM63 °FMild.3 mph77%30.09 "HgN/A
7:20 PM64 °FMild.6 mph73%30.09 "HgN/A
6:20 PM68 °FMild.6 mph64%30.09 "HgN/A
5:20 PM70 °FMild.6 mph60%30.09 "HgN/A
4:20 PM70 °FMild.6 mph60%30.09 "HgN/A
3:20 PM68 °FMild.3 mph64%30.12 "HgN/A
2:20 PM68 °FMild.2 mph64%30.12 "HgN/A
1:20 PM66 °FMild.7 mph68%30.15 "HgN/A
12:20 PM66 °FMild.5 mph68%30.15 "HgN/A
11:20 AM66 °FMild.2 mph73%30.15 "Hg6 mi
10:20 AM63 °FMild.3 mph83%30.15 "Hg5 mi
9:20 AM61 °FCool.5 mph88%30.15 "HgN/A
8:20 AM59 °FCool.6 mph94%30.18 "Hg5 mi
7:20 AM59 °FCool.6 mph94%30.18 "Hg4 mi
6:20 AM59 °FCool.3 mph94%30.18 "Hg5 mi
Weather by CustomWeather, © 2014

See weather overviewHow to use our weather pages